Location: Newark
(7.0858°N, 171.3717°E)
Time: 20:10:04
(UTC+00:00)

Vanguard 2 - Pass Details

Date: 28 November 2020
Orbit: 553 x 2937 km, 32.9° (Epoch: 17 January)

Event Time Altitude Azimuth Distance (km) Brightness Sun altitude
Rises 15:25:49 0° 212° (SSW) 6,783 12.3 -43.6°
Reaches altitude 10° 15:32:55 10° 196° (SSW) 5,634 11.9 -41.9°
Maximum altitude 15:43:05 19° 158° (SSE) 4,470 11.7 -39.6°
Drops below altitude 10° 15:51:25 10° 119° (ESE) 4,559 12.2 -37.7°
Sets 15:56:05 0° 102° (ESE) 5,131 12.7 -36.6°
